This is the latest recevied weather packets stored in our database for station/object KC5DAQ-29. If no packets are shown the sender has not sent any weather packets the latest 1 day(s).
| Time | Temp. | Humidity | Pressure | Rain* | Wind** | Luminosity | Snow |
|---|---|---|---|---|---|---|---|
| 1778001543 | 25.56° C | 100% | 1007 hPa | 0 mm | 2.24 m/s, 169° | 262 W/m² | - |
| 1778001483 | 25.56° C | 100% | 1007 hPa | 0 mm | 2.24 m/s, 207° | 262 W/m² | - |
| 1778001423 | 25.56° C | 100% | 1007 hPa | 0 mm | 2.68 m/s, 214° | 262 W/m² | - |
| 1778001363 | 25.56° C | 100% | 1007 hPa | 0 mm | 2.68 m/s, 219° | 262 W/m² | - |
| 1778001302 | 25.56° C | 100% | 1007.1 hPa | 0 mm | 2.68 m/s, 207° | 262 W/m² | - |
| 1778001243 | 25.56° C | 100% | 1007 hPa | 0 mm | 2.68 m/s, 147° | 262 W/m² | - |
| 1778001183 | 25.56° C | 100% | 1007 hPa | 0 mm | 2.68 m/s, 199° | 262 W/m² | - |
| 1778001123 | 25.56° C | 100% | 1007 hPa | 0 mm | 1.79 m/s, 233° | 262 W/m² | - |
| 1778001063 | 25.56° C | 100% | 1006.9 hPa | 0 mm | 1.34 m/s, 210° | 262 W/m² | - |
| 1778001002 | 25.56° C | 100% | 1006.9 hPa | 0 mm | 1.34 m/s, 180° | 297 W/m² | - |
| 1778000943 | 25.56° C | 100% | 1006.9 hPa | 0 mm | 1.34 m/s, 200° | 297 W/m² | - |
| 1778000883 | 25.56° C | 100% | 1006.9 hPa | 0 mm | 1.34 m/s, 169° | 297 W/m² | - |
| 1778000824 | 25.56° C | 100% | 1007 hPa | 0 mm | 0.89 m/s, 158° | 297 W/m² | - |
| 1778000763 | 25.56° C | 100% | 1006.9 hPa | 0 mm | 0.89 m/s, 192° | 297 W/m² | - |
| 1778000703 | 25.56° C | 100% | 1006.9 hPa | 0 mm | 1.34 m/s, 141° | 297 W/m² | - |
| 1778000643 | 25.56° C | 100% | 1006.9 hPa | 0 mm | 1.34 m/s, 161° | 297 W/m² | - |
| 1778000583 | 25.56° C | 100% | 1006.9 hPa | 0 mm | 1.34 m/s, 168° | 281 W/m² | - |
| 1778000522 | 25.56° C | 100% | 1006.9 hPa | 0 mm | 1.79 m/s, 219° | 281 W/m² | - |
| 1778000464 | 25.56° C | 100% | 1006.9 hPa | 0 mm | 1.79 m/s, 220° | 281 W/m² | - |
| 1778000404 | 25.56° C | 100% | 1007 hPa | 0 mm | 0.89 m/s, 172° | 281 W/m² | - |
| 1778000343 | 25.56° C | 100% | 1006.9 hPa | 0 mm | 1.34 m/s, 212° | 281 W/m² | - |
| 1778000283 | 25.56° C | 100% | 1007 hPa | 0 mm | 1.34 m/s, 213° | 295 W/m² | - |
| 1778000228 | 25.56° C | 100% | 1006.9 hPa | 0 mm | 0.89 m/s, 228° | 295 W/m² | - |
| 1778000162 | 25.56° C | 100% | 1007 hPa | 0 mm | 1.34 m/s, 186° | 288 W/m² | - |
| 1778000102 | 25.56° C | 100% | 1007 hPa | 0 mm | 1.34 m/s, 265° | 278 W/m² | - |
* Rain latest hour (hover to see other rain measurements)
** Current wind speed in m/s (hover to see current wind gust speed)